Tracking 26544 objects as of 9-Dec-2022
HD Live streaming from Space Station
objects crossing your sky now

STARLINK-4439

Track STARLINK-4439 now!
10-day predictions
STARLINK-4439 is classified as:


NORAD ID: 53498
Int'l Code: 2022-099AK
Perigee: 568.0 km
Apogee: 572.3 km
Inclination: 97.7 °
Period: 95.9 minutes
Semi major axis: 6941 km
RCS: Unknown
Launch date: August 12, 2022
Source: United States (US)
Launch site: AIR FORCE WESTERN TEST RANGE (AFWTR)
aabbcc
Your satellite tracking list
Your tracking list is empty




NASA's NSSDC Master Catalog

Two Line Element Set (TLE):
1 53498U 22099AK  22342.60449213  .00002954  00000-0  23448-3 0  9997
2 53498  97.6566 101.4225 0003117  16.5653 343.5672 15.01257881 17885
Source of the keplerian elements: AFSPC